This demonstration page uses our WeatherBlox Daily Observations layout. Learn more.

Left ArrowRight Arrow

36.17497, -115.13722

Hourly Observations for March 26, 2021

Temp ( °F °C ) Dew Point ( °F °C ) Humidity (%) Winds ( mph kmh ) Pressure ( in mb ) Visibility ( mi km ) Precip ( " mm )
12:53 am 00:53 Cloudy with Light Rain 54 12.2 34 1.1 47 47 NW 25 41 29.69 1005 10 16 0.00 0.00
1:53 am 01:53 Cloudy 53 11.7 34 1.1 48 48 NW 15 24 29.72 1006 10 16 0.00 0.00
2:53 am 02:53 Cloudy 54 12.2 30 -1.1 40 40 NE 8 13 29.72 1007 10 16 0.00 0.00
3:53 am 03:53 Cloudy 51 10.6 35 1.7 54 54 SSE 5 7 29.73 1007 10 16 0.00 0.00
4:53 am 04:53 Cloudy 53 11.7 30 -1.1 41 41 NNW 3 6 29.74 1007 10 16 0.00 0.00
5:53 am 05:53 Cloudy 53 11.7 26 -3.3 35 35 NW 15 24 29.78 1008 10 16 0.00 0.00
6:53 am 06:53 Cloudy 53 11.7 25 -3.9 34 34 NW 15 24 29.80 1009 10 16 0.00 0.00
7:53 am 07:53 Sunny 53 11.7 24 -4.4 32 32 NW 14 22 29.85 1011 10 16 0.00 0.00
8:53 am 08:53 Sunny 55 12.8 23 -5 29 29 NW 18 30 29.87 1012 10 16 0.00 0.00
9:53 am 09:53 Sunny 57 13.9 22 -5.6 26 26 NW 16 26 29.91 1013 10 16 0.00 0.00
10:53 am 10:53 Sunny 60 15.6 21 -6.1 22 22 NNW 20 31 29.92 1013 10 16 0.00 0.00
11:53 am 11:53 Mostly Sunny 61 16.1 20 -6.7 20 20 NW 16 26 29.94 1014 10 16 0.00 0.00
12:53 pm 12:53 Mostly Cloudy 64 17.8 19 -7.2 18 18 WNW 22 35 29.94 1014 10 16 0.00 0.00
1:53 pm 13:53 Cloudy 64 17.8 19 -7.2 18 18 ENE 13 20 29.94 1014 10 16 0.00 0.00
2:00 pm 14:00 Cloudy 64 17.8 19 -7.2 18 18 VRB 3 6 29.85 1011 10 16 0.00 0.00
2:53 pm 14:53 Mostly Cloudy 66 18.9 18 -7.8 16 16 NE 9 15 29.93 1013 10 16 0.00 0.00
3:53 pm 15:53 Mostly Cloudy 68 20 16 -8.9 13 13 Calm 29.93 1013 10 16 0.00 0.00
4:53 pm 16:53 Cloudy 68 20 14 -10 12 12 VRB 7 11 29.93 1014 10 16 0.00 0.00
5:53 pm 17:53 Mostly Cloudy 67 19.4 14 -10 13 13 NNE 6 9 29.95 1014 10 16 0.00 0.00
6:53 pm 18:53 Sunny 65 18.3 13 -10.6 13 13 ENE 7 11 29.98 1015 10 16 0.00 0.00
7:53 pm 19:53 Clear 64 17.8 14 -10 14 14 N 7 11 30.01 1016 10 16 0.00 0.00
8:53 pm 20:53 Clear 63 17.2 15 -9.4 15 15 NNW 8 13 30.04 1017 10 16 0.00 0.00
9:53 pm 21:53 Clear 61 16.1 18 -7.8 19 19 NNE 6 9 30.08 1019 10 16 0.00 0.00
10:53 pm 22:53 Clear 58 14.4 20 -6.7 23 23 NNE 6 9 30.10 1019 10 16 0.00 0.00
11:53 pm 23:53 Clear 58 14.4 21 -6.1 24 24 Calm 30.13 1020 10 16 0.00 0.00

Powered by AerisWeather